Regional Weather Roundup
Issued by NWS

Home | Current Version | Previous Version | Graphics & Text | Print | Product List | Glossary On
Versions: 1 2 3 4 5 6 7 8 9 10 11 12 13 14 15 16 17 18 19 20 21 22 23 24 25 26 27 28 29 30 31 32 33 34 35 36 37 38 39 40 41 42 43 44 45 46 47 48 49 50
000
ASUS43 KIND 280309
RWRIN

WEATHER ROUNDUP FOR INDIANA
NATIONAL WEATHER SERVICE INDIANAPOLIS IN
1100 PM EDT MON JUL 27 2015

NOTE: "FAIR" INDICATES FEW OR NO CLOUDS BELOW 12,000 FEET WITH NO
SIGNIFICANT WEATHER AND/OR OBSTRUCTIONS TO VISIBILITY.

* - STATION DOES NOT REPORT WEATHER SUCH AS PRECIPITATION OR FOG.

+ - STATION NOT QUALITY CONTROLLED BY THE NATIONAL WEATHER SERVICE.
    USE DATA WITH CAUTION...ESPECIALLY DEWPOINT AND RELATIVE
    HUMIDITY OBSERVATIONS.

INZ001>003-010>013-019-020-280400-
NORTHWEST INDIANA

CITY           SKY/WX    TMP DP  RH WIND       PRES   REMARKS
GARY /AIRPORT/ PTCLDY    75  70  83 E8        30.02R
KNOX *+        PTCLDY    70  64  83 E5        30.01R
LA PORTE +     CLEAR     69  68  95 NE3       30.03R
MICHIGAN CITY+ PTCLDY    68  68 100 CALM      30.02S FOG
MONTICELLO +   MOCLDY    73  69  85 CALM      30.01R
RENSSELAER +   MOCLDY    70  70 100 CALM      30.02R
VALPARAISO     PTCLDY    70  66  87 CALM      30.02R

$$

LMZ046-743>745-280400-
SOUTHERN LAKE MICHIGAN

STATION/POSITION TIME  TEMP    WIND        PRES    WAVE
                       AIR SEA DIR/SP/G            HT
                 (UTC) (F)     (DEG/KT/KT) (MB)    (FT)
BURNS HARBOR     0200   74      80/  8/  9 1016.6R
MICHIGAN CITY    0200   74      30/  8/  9   N/A
5NW MICH CITY    0300   75 75   70/ 12/ 14   N/A     2

$$

INZ004-005-014>016-021>024-280400-
NORTH CENTRAL INDIANA

CITY           SKY/WX    TMP DP  RH WIND       PRES   REMARKS
GOSHEN         PTCLDY    71  64  78 CALM      30.03R
LOGANSPORT +   MOCLDY    75  59  57 CALM      30.03R
PERU/GRISSOM   MOCLDY    74  66  75 E5        30.02R
ROCHESTER +    MOCLDY    73  68  83 CALM      30.03R
SOUTH BEND     PTCLDY    72  64  76 CALM      30.04R
WARSAW +       PTCLDY    68  64  88 CALM      30.03S

$$

INZ006>009-017-018-025>027-280400-
NORTHEAST INDIANA

CITY           SKY/WX    TMP DP  RH WIND       PRES   REMARKS
ANGOLA *+      CLEAR     70  61  73 CALM      30.05R
AUBURN +       PTCLDY    70  63  78 CALM      30.04R
FORT WAYNE     PTCLDY    73  64  73 E7        30.03R
HUNTINGTON +   PTCLDY    73  63  69 CALM      30.03R

$$

INZ028-029-035-036-043>045-051>053-280400-
WEST CENTRAL INDIANA

CITY           SKY/WX    TMP DP  RH WIND       PRES   REMARKS
CRAWFORDSVL +  MOCLDY    72  72  99 CALM        N/A
GREENCASTLE +  PTCLDY    77  70  78 CALM      30.01R
LAFAYETTE      MOCLDY    74  68  81 NE5       30.00R
TERRE HAUTE    MOCLDY    76  74  93 NE3       29.98R

$$

INZ030>032-037>040-046>048-054>057-064-065-280400-
CENTRAL INDIANA

CITY           SKY/WX    TMP DP  RH WIND       PRES   REMARKS
FRANKFORT +    MOCLDY   N/A N/A N/A CALM      30.03R
GREENWOOD *+   PTCLDY    77  70  78 NE3       30.01R
INDIANAPOLIS   MOCLDY    79  71  76 E6        30.00R
-EAGLE CREEK   MOCLDY    79  71  76 CALM      30.00R
KOKOMO *+      MOCLDY    73  66  78 E3        30.02R
MARION +       MOCLDY    73  64  72 CALM      30.02R HAZE
MT COMFORT *+  MOCLDY    73 N/A N/A CALM      30.02R
SHELBYVILLE    PTCLDY    76  72  87 NE5       30.00R
ZIONSVILLE +   MOCLDY    74  70  86 CALM      30.03R

$$

INZ033-034-041-042-049-050-058-059-280400-
EAST CENTRAL INDIANA

CITY           SKY/WX    TMP DP  RH WIND       PRES   REMARKS
MUNCIE         MOCLDY    74  70  87 E5        30.02R

$$

INZ060-061-067>069-081>083-085>088-280400-
SOUTHWEST INDIANA

CITY           SKY/WX    TMP DP  RH WIND       PRES   REMARKS
EVANSVILLE     CLOUDY    81  72  74 W9        29.99R
HUNTINGBURG *+ MOCLDY    79  75  89 CALM      29.98R
WASHINGTON +   MOCLDY    78  74  87 CALM      29.97R FOG

$$

INZ062-063-066-070>080-084-089>092-280400-
SOUTH CENTRAL AND SOUTHEAST INDIANA

CITY           SKY/WX    TMP DP  RH WIND       PRES   REMARKS
BLOOMINGTON    PTCLDY    76  74  93 CALM      30.00R
MADISON *+     PTCLDY    77  73  88 CALM      30.02R
NORTH VERNON + PTCLDY    77  77 100 CALM      30.00R
SEYMOUR +      CLEAR     81  75  83 CALM      29.98R

$$



USA.gov is the U.S. government's official web portal to all federal, state and local government web resources and services.